STARLINK-1266, 45383

Orbit data source: Space-Track

STARLINK-1266, 45383 is a payload satellite owned by SpaceX/Seattle (US) in LEO that was launched on Wed, 18 Mar 2020 UTC via an FALCON 9 launch vehicle from the Air Force Eastern Test Range (AFETR). Payload-class satellites include a variety of spacecraft equipped with specific instruments for various scientific and technological missions. These include communications satellites like Starlink; space stations such as the ISS; scientific satellites like the Hubble; Earth observation satellites from companies like Planet Labs, Umbra, and HawkEye 360; GPS; miniature CubeSats for education and research; and military/defense satellites.

Loading next visibility...
Identifier
45383, 2020-019Z
Orbit
LEO
Country
Flag of USUS
Related business
Manufacturer
SpaceX/Seattle
Mission
Partially operational Commercial Communications
Bus & Motor
STARLINK, Unknown motor
Mass
260 kg wet, ~248 kg dry
Launch date (UTC)
2020-03-18 (6 years ago)
Launch vehicle
FALCON 9
Launch site
Air Force Eastern Test Range (AFETR)
Object type
Payload
Rocket body
Debris
Shape & HBR
Box + 1 Pan, 10.1 m
Radar Cross Section
13.562 m², Large (>1 m²)

Expand to show TLE details & history
Last TLE update: 7 hours ago

TLE from 7 hours ago
0 STARLINK-1266
1 45383U 20019Z   26121.54270789  .00078988  00000-0  12038-2 0  9995
2 45383  53.0459 239.4592 0003754 277.7628  82.2955 15.53806910338398
Epoch: 2026-05-01T13:01Z
TLE epoch observation values (Epoch: 2026-05-01T13:01:29.961Z)
Latitude
-0.00005°
Longitude
-175.38914°
Altitude
406.179 km
Speed
7.668 km/s
True Right ascension
15h 57m 50s
True Declination
0° 00' 00"
Sunlit
Object was in full shadow at epoch
Visualization orbit readout
Latitude
Unknown
Longitude
Unknown
Altitude
Unknown
Speed
Unknown
Apparent Right ascension
Unknown
Apparent Declination
Unknown
Sunlit
N/A
Visualization observer readout
Local Sidereal Time
03:52:27
Azimuth
Unknown
Elevation
Unknown
Doppler factor
Unknown
Orbital elements
Apogee altitude
408.447 km
Perigee altitude
403.354 km
Semi-major axis
6,784.038 km
Eccentricity
0.00038
Inclination
53.0459°
RAAN
239.4592°
Arg. of periapsis
277.7628°
True anomaly
82.33813°
Mean anomaly
82.2955°
Eccentric anomaly
82.31682°
Mean motion
3.88428 °/min
Orbital period
92.68 mins
BSTAR
0.0012038
Loading maneuver chart data...
Computing Atmospheric mass density...
Loading historical data...
Loading historical data...
Loading historical data...
Loading historical data...
Loading historical data...
Loading historical data...
Loading historical data...

Documentation

Showing up to 5 results
|